Time,TemperatureF,DewpointF,PressureIn,WindDirection,WindDirectionDegrees,WindSpeedMPH,WindSpeedGustMPH,Humidity,HourlyPrecipIn,Conditions,Clouds,dailyrainin,SoftwareType,DateUTC
2013-11-13 00:01:00,28.3,16.9,30.52,NNE,23,0.0,2.9,62,0.00,,,0.00,WUHU216HW,2013-11-13 05:01:00,
2013-11-13 00:02:00,28.3,16.9,30.52,NNE,23,0.0,2.9,62,0.00,,,0.00,WUHU216HW,2013-11-13 05:02:00,
2013-11-13 00:07:00,28.3,16.9,30.52,NNE,23,0.0,2.9,62,0.00,,,0.00,WUHU216HW,2013-11-13 05:07:00,
2013-11-13 00:12:00,28.1,16.7,30.52,NNE,23,0.0,0.2,62,0.00,,,0.00,WUHU216HW,2013-11-13 05:12:00,
2013-11-13 00:17:00,28.1,16.7,30.52,NNE,23,0.0,0.4,62,0.00,,,0.00,WUHU216HW,2013-11-13 05:17:00,
2013-11-13 00:22:00,28.1,16.7,30.51,NE,45,0.0,0.4,62,0.00,,,0.00,WUHU216HW,2013-11-13 05:22:00,
2013-11-13 00:27:00,28.1,16.7,30.51,ENE,68,0.0,0.0,62,0.00,,,0.00,WUHU216HW,2013-11-13 05:27:00,
2013-11-13 00:32:00,27.9,16.6,30.52,East,90,0.0,0.4,62,0.00,,,0.00,WUHU216HW,2013-11-13 05:32:00,
2013-11-13 00:37:00,27.7,16.4,30.52,East,90,0.0,0.4,62,0.00,,,0.00,WUHU216HW,2013-11-13 05:37:00,
2013-11-13 00:42:00,27.7,16.4,30.52,East,90,0.0,0.0,62,0.00,,,0.00,WUHU216HW,2013-11-13 05:42:00,
2013-11-13 00:47:00,27.7,16.4,30.52,East,90,0.0,0.0,62,0.00,,,0.00,WUHU216HW,2013-11-13 05:47:00,
2013-11-13 00:52:00,27.7,16.4,30.52,East,90,0.0,0.0,62,0.00,,,0.00,WUHU216HW,2013-11-13 05:52:00,
2013-11-13 00:57:00,27.5,16.2,30.52,East,90,0.0,0.0,62,0.00,,,0.00,WUHU216HW,2013-11-13 05:57:00,
2013-11-13 01:02:00,27.5,16.2,30.52,East,90,0.0,0.0,62,0.00,,,0.00,WUHU216HW,2013-11-13 06:02:00,
2013-11-13 01:07:00,27.4,16.4,30.51,East,90,0.0,0.0,63,0.00,,,0.00,WUHU216HW,2013-11-13 06:07:00,
2013-11-13 01:12:00,27.4,16.4,30.51,East,90,0.0,0.0,63,0.00,,,0.00,WUHU216HW,2013-11-13 06:12:00,
2013-11-13 01:17:00,27.4,16.4,30.51,East,90,0.0,0.0,63,0.00,,,0.00,WUHU216HW,2013-11-13 06:17:00,
2013-11-13 01:22:00,27.4,16.4,30.52,East,90,0.0,0.0,63,0.00,,,0.00,WUHU216HW,2013-11-13 06:22:00,
2013-11-13 01:27:00,27.4,16.4,30.52,East,90,0.0,0.0,63,0.00,,,0.00,WUHU216HW,2013-11-13 06:27:00,
2013-11-13 01:32:00,27.2,16.2,30.52,East,90,0.0,0.0,63,0.00,,,0.00,WUHU216HW,2013-11-13 06:32:00,
2013-11-13 01:37:00,27.2,16.2,30.52,East,90,0.0,0.0,63,0.00,,,0.00,WUHU216HW,2013-11-13 06:37:00,
2013-11-13 01:42:00,27.2,16.2,30.52,East,90,0.0,0.0,63,0.00,,,0.00,WUHU216HW,2013-11-13 06:42:00,
2013-11-13 01:47:00,27.2,16.2,30.52,East,90,0.0,0.0,63,0.00,,,0.00,WUHU216HW,2013-11-13 06:47:00,
2013-11-13 01:52:00,27.4,16.7,30.52,East,90,0.0,0.0,64,0.00,,,0.00,WUHU216HW,2013-11-13 06:52:00,
2013-11-13 01:57:00,27.4,16.7,30.52,East,90,0.0,0.0,64,0.00,,,0.00,WUHU216HW,2013-11-13 06:57:00,
2013-11-13 02:02:00,27.4,16.4,30.52,East,90,0.0,0.0,63,0.00,,,0.00,WUHU216HW,2013-11-13 07:02:00,
2013-11-13 02:07:00,27.4,16.7,30.52,East,90,0.0,0.0,64,0.00,,,0.00,WUHU216HW,2013-11-13 07:07:00,
2013-11-13 02:12:00,27.4,16.7,30.52,East,90,0.0,0.0,64,0.00,,,0.00,WUHU216HW,2013-11-13 07:12:00,
2013-11-13 02:17:00,27.4,16.7,30.52,East,90,0.0,0.0,64,0.00,,,0.00,WUHU216HW,2013-11-13 07:17:00,
2013-11-13 02:22:00,27.4,16.7,30.52,East,90,0.0,0.0,64,0.00,,,0.00,WUHU216HW,2013-11-13 07:22:00,
2013-11-13 02:27:00,27.4,16.7,30.52,East,90,0.0,0.0,64,0.00,,,0.00,WUHU216HW,2013-11-13 07:27:00,
2013-11-13 02:32:00,27.4,16.7,30.52,East,90,0.0,0.0,64,0.00,,,0.00,WUHU216HW,2013-11-13 07:32:00,
2013-11-13 02:37:00,27.4,16.7,30.52,East,90,0.0,0.0,64,0.00,,,0.00,WUHU216HW,2013-11-13 07:37:00,
2013-11-13 02:42:00,27.4,16.7,30.52,East,90,0.0,0.0,64,0.00,,,0.00,WUHU216HW,2013-11-13 07:42:00,
2013-11-13 02:47:00,27.2,16.6,30.52,East,90,0.0,0.2,64,0.00,,,0.00,WUHU216HW,2013-11-13 07:47:00,
2013-11-13 02:52:00,27.2,16.6,30.52,East,90,0.0,0.4,64,0.00,,,0.00,WUHU216HW,2013-11-13 07:52:00,
2013-11-13 02:57:00,27.2,16.6,30.52,East,90,0.0,0.4,64,0.00,,,0.00,WUHU216HW,2013-11-13 07:57:00,
2013-11-13 03:02:00,27.2,16.9,30.52,East,90,0.0,0.0,65,0.00,,,0.00,WUHU216HW,2013-11-13 08:02:00,
2013-11-13 03:07:00,27.2,16.9,30.52,East,90,0.0,0.0,65,0.00,,,0.00,WUHU216HW,2013-11-13 08:07:00,
2013-11-13 03:12:00,27.2,16.9,30.52,East,90,0.0,0.0,65,0.00,,,0.00,WUHU216HW,2013-11-13 08:12:00,
2013-11-13 03:17:00,27.2,16.9,30.52,East,90,0.0,0.0,65,0.00,,,0.00,WUHU216HW,2013-11-13 08:17:00,
2013-11-13 03:22:00,27.2,16.9,30.52,East,90,0.0,0.0,65,0.00,,,0.00,WUHU216HW,2013-11-13 08:22:00,
2013-11-13 03:27:00,27.2,16.9,30.52,ENE,68,0.0,0.0,65,0.00,,,0.00,WUHU216HW,2013-11-13 08:27:00,
2013-11-13 03:32:00,27.0,16.7,30.52,ENE,68,0.0,0.0,65,0.00,,,0.00,WUHU216HW,2013-11-13 08:32:00,
2013-11-13 03:37:00,27.0,16.7,30.52,ENE,68,0.0,0.0,65,0.00,,,0.00,WUHU216HW,2013-11-13 08:37:00,
2013-11-13 03:42:00,27.0,17.1,30.52,ENE,68,0.0,0.0,66,0.00,,,0.00,WUHU216HW,2013-11-13 08:42:00,
2013-11-13 03:47:00,27.0,17.1,30.51,ENE,68,0.0,0.0,66,0.00,,,0.00,WUHU216HW,2013-11-13 08:47:00,
2013-11-13 03:52:00,27.0,17.1,30.51,ENE,68,0.0,0.0,66,0.00,,,0.00,WUHU216HW,2013-11-13 08:52:00,
2013-11-13 03:57:00,27.0,17.1,30.51,ENE,68,0.0,0.0,66,0.00,,,0.00,WUHU216HW,2013-11-13 08:57:00,
2013-11-13 04:02:00,27.0,17.1,30.51,ENE,68,0.0,0.0,66,0.00,,,0.00,WUHU216HW,2013-11-13 09:02:00,
2013-11-13 04:07:00,26.8,16.9,30.51,ENE,68,0.0,0.0,66,0.00,,,0.00,WUHU216HW,2013-11-13 09:07:00,
2013-11-13 04:12:00,26.8,16.9,30.51,ENE,68,0.0,0.0,66,0.00,,,0.00,WUHU216HW,2013-11-13 09:12:00,
2013-11-13 04:17:00,26.8,16.9,30.51,ENE,68,0.0,0.0,66,0.00,,,0.00,WUHU216HW,2013-11-13 09:17:00,
2013-11-13 04:22:00,26.6,16.7,30.51,ENE,68,0.4,0.4,66,0.00,,,0.00,WUHU216HW,2013-11-13 09:22:00,
2013-11-13 04:27:00,26.5,16.6,30.50,ENE,68,0.2,0.4,66,0.00,,,0.00,WUHU216HW,2013-11-13 09:27:00,
2013-11-13 04:32:00,26.3,16.4,30.50,ENE,68,0.0,0.4,66,0.00,,,0.00,WUHU216HW,2013-11-13 09:32:00,
2013-11-13 04:37:00,26.3,16.7,30.50,East,90,0.4,0.4,67,0.00,,,0.00,WUHU216HW,2013-11-13 09:37:00,
2013-11-13 04:42:00,26.3,16.7,30.50,East,90,0.4,0.4,67,0.00,,,0.00,WUHU216HW,2013-11-13 09:42:00,
2013-11-13 04:47:00,26.1,16.6,30.50,East,90,0.0,0.4,67,0.00,,,0.00,WUHU216HW,2013-11-13 09:47:00,
2013-11-13 04:52:00,26.1,16.6,30.51,East,90,0.0,0.4,67,0.00,,,0.00,WUHU216HW,2013-11-13 09:52:00,
2013-11-13 04:57:00,26.1,16.6,30.51,East,90,0.0,0.0,67,0.00,,,0.00,WUHU216HW,2013-11-13 09:57:00,
2013-11-13 05:02:00,26.1,16.6,30.52,East,90,0.0,0.0,67,0.00,,,0.00,WUHU216HW,2013-11-13 10:02:00,
2013-11-13 05:07:00,26.1,16.6,30.52,ENE,68,0.0,0.4,67,0.00,,,0.00,WUHU216HW,2013-11-13 10:07:00,
2013-11-13 05:12:00,26.1,16.6,30.52,ENE,68,0.0,0.4,67,0.00,,,0.00,WUHU216HW,2013-11-13 10:12:00,
2013-11-13 05:17:00,26.3,17.1,30.52,ENE,68,0.0,0.0,68,0.00,,,0.00,WUHU216HW,2013-11-13 10:17:00,
2013-11-13 05:22:00,26.3,17.1,30.52,NE,45,0.0,0.4,68,0.00,,,0.00,WUHU216HW,2013-11-13 10:22:00,
2013-11-13 05:27:00,26.3,17.1,30.52,NNE,23,0.0,0.4,68,0.00,,,0.00,WUHU216HW,2013-11-13 10:27:00,
2013-11-13 05:32:00,26.3,17.1,30.52,NNE,23,0.0,0.4,68,0.00,,,0.00,WUHU216HW,2013-11-13 10:32:00,
2013-11-13 05:37:00,26.3,17.1,30.52,North,0,0.0,0.2,68,0.00,,,0.00,WUHU216HW,2013-11-13 10:37:00,
2013-11-13 05:42:00,26.3,17.1,30.52,North,0,0.0,0.2,68,0.00,,,0.00,WUHU216HW,2013-11-13 10:42:00,
2013-11-13 05:47:00,26.3,17.1,30.52,North,0,0.4,0.7,68,0.00,,,0.00,WUHU216HW,2013-11-13 10:47:00,
2013-11-13 05:52:00,26.3,17.1,30.52,North,0,0.2,0.7,68,0.00,,,0.00,WUHU216HW,2013-11-13 10:52:00,
2013-11-13 05:57:00,26.3,17.5,30.52,NE,45,0.4,0.7,69,0.00,,,0.00,WUHU216HW,2013-11-13 10:57:00,
2013-11-13 06:02:00,26.3,17.5,30.53,NNE,23,0.0,0.9,69,0.00,,,0.00,WUHU216HW,2013-11-13 11:02:00,
2013-11-13 06:07:00,26.3,17.5,30.53,NNE,23,0.2,0.9,69,0.00,,,0.00,WUHU216HW,2013-11-13 11:07:00,
2013-11-13 06:12:00,26.3,17.5,30.53,NNE,23,0.0,0.7,69,0.00,,,0.00,WUHU216HW,2013-11-13 11:12:00,
2013-11-13 06:17:00,26.3,17.5,30.53,NNE,23,0.0,0.4,69,0.00,,,0.00,WUHU216HW,2013-11-13 11:17:00,
2013-11-13 06:22:00,26.3,17.8,30.53,NNE,23,0.0,0.2,70,0.00,,,0.00,WUHU216HW,2013-11-13 11:22:00,
2013-11-13 06:27:00,26.3,17.8,30.53,NNE,23,0.0,0.2,70,0.00,,,0.00,WUHU216HW,2013-11-13 11:27:00,
2013-11-13 06:32:00,26.1,17.6,30.54,NNE,23,0.0,0.0,70,0.00,,,0.00,WUHU216HW,2013-11-13 11:32:00,
2013-11-13 06:37:00,26.1,17.6,30.54,NNE,23,0.0,0.0,70,0.00,,,0.00,WUHU216HW,2013-11-13 11:37:00,
2013-11-13 06:42:00,25.9,17.5,30.54,NNE,23,0.0,0.0,70,0.00,,,0.00,WUHU216HW,2013-11-13 11:42:00,
2013-11-13 06:47:00,25.9,17.5,30.54,NNE,23,0.0,0.0,70,0.00,,,0.00,WUHU216HW,2013-11-13 11:47:00,
2013-11-13 06:52:00,25.7,17.6,30.54,ENE,68,0.0,0.2,71,0.00,,,0.00,WUHU216HW,2013-11-13 11:52:00,
2013-11-13 06:57:00,25.6,17.5,30.55,ENE,68,0.0,0.2,71,0.00,,,0.00,WUHU216HW,2013-11-13 11:57:00,
2013-11-13 07:02:00,25.6,17.5,30.55,ESE,113,0.2,0.4,71,0.00,,,0.00,WUHU216HW,2013-11-13 12:02:00,
2013-11-13 07:07:00,25.4,17.3,30.55,East,90,0.4,0.7,71,0.00,,,0.00,WUHU216HW,2013-11-13 12:07:00,
2013-11-13 07:12:00,25.2,17.1,30.55,East,90,0.2,0.7,71,0.00,,,0.00,WUHU216HW,2013-11-13 12:12:00,
2013-11-13 07:17:00,25.2,17.1,30.55,East,90,0.0,0.4,71,0.00,,,0.00,WUHU216HW,2013-11-13 12:17:00,
2013-11-13 07:22:00,25.0,16.9,30.55,East,90,0.0,0.4,71,0.00,,,0.00,WUHU216HW,2013-11-13 12:22:00,
2013-11-13 07:27:00,25.0,16.9,30.55,ENE,68,0.0,0.0,71,0.00,,,0.00,WUHU216HW,2013-11-13 12:27:00,
2013-11-13 07:32:00,25.0,16.9,30.55,ENE,68,0.0,0.0,71,0.00,,,0.00,WUHU216HW,2013-11-13 12:32:00,
2013-11-13 07:37:00,25.2,17.4,30.56,ENE,68,0.0,0.0,72,0.00,,,0.00,WUHU216HW,2013-11-13 12:37:00,
2013-11-13 07:42:00,25.2,17.4,30.56,ENE,68,0.0,0.0,72,0.00,,,0.00,WUHU216HW,2013-11-13 12:42:00,
2013-11-13 07:47:00,25.2,17.4,30.56,ENE,68,0.0,0.0,72,0.00,,,0.00,WUHU216HW,2013-11-13 12:47:00,
2013-11-13 07:52:00,25.4,17.6,30.57,ENE,68,0.0,0.0,72,0.00,,,0.00,WUHU216HW,2013-11-13 12:52:00,
2013-11-13 07:57:00,25.4,17.6,30.57,ENE,68,0.0,0.0,72,0.00,,,0.00,WUHU216HW,2013-11-13 12:57:00,
2013-11-13 08:02:00,25.6,17.7,30.57,ENE,68,0.0,0.0,72,0.00,,,0.00,WUHU216HW,2013-11-13 13:02:00,
2013-11-13 08:07:00,25.6,17.7,30.57,ENE,68,0.0,0.0,72,0.00,,,0.00,WUHU216HW,2013-11-13 13:07:00,
2013-11-13 08:12:00,25.7,17.9,30.57,ENE,68,0.0,0.0,72,0.00,,,0.00,WUHU216HW,2013-11-13 13:12:00,
2013-11-13 08:17:00,25.9,18.1,30.57,ENE,68,0.0,0.0,72,0.00,,,0.00,WUHU216HW,2013-11-13 13:17:00,
2013-11-13 08:22:00,26.1,18.3,30.57,ENE,68,0.0,0.0,72,0.00,,,0.00,WUHU216HW,2013-11-13 13:22:00,
2013-11-13 08:27:00,26.3,18.5,30.57,ENE,68,0.0,0.0,72,0.00,,,0.00,WUHU216HW,2013-11-13 13:27:00,
2013-11-13 08:32:00,26.3,18.5,30.58,East,90,0.0,0.2,72,0.00,,,0.00,WUHU216HW,2013-11-13 13:32:00,
2013-11-13 08:37:00,26.5,18.9,30.58,North,0,0.0,1.1,73,0.00,,,0.00,WUHU216HW,2013-11-13 13:37:00,
2013-11-13 08:42:00,26.8,19.3,30.58,North,0,0.0,1.1,73,0.00,,,0.00,WUHU216HW,2013-11-13 13:42:00,
2013-11-13 08:47:00,27.0,19.2,30.58,West,270,0.0,0.4,72,0.00,,,0.00,WUHU216HW,2013-11-13 13:47:00,
2013-11-13 08:52:00,27.4,19.5,30.58,ESE,113,1.8,1.8,72,0.00,,,0.00,WUHU216HW,2013-11-13 13:52:00,
2013-11-13 08:57:00,27.7,20.2,30.58,NNE,23,0.0,4.7,73,0.00,,,0.00,WUHU216HW,2013-11-13 13:57:00,
2013-11-13 09:02:00,28.1,20.3,30.58,ESE,113,1.8,4.7,72,0.00,,,0.00,WUHU216HW,2013-11-13 14:02:00,
2013-11-13 09:07:00,28.6,20.4,30.58,ESE,113,2.2,3.1,71,0.00,,,0.00,WUHU216HW,2013-11-13 14:07:00,
2013-11-13 09:12:00,28.8,20.6,30.59,ENE,68,0.4,2.9,71,0.00,,,0.00,WUHU216HW,2013-11-13 14:12:00,
2013-11-13 09:17:00,29.0,20.4,30.59,SE,135,0.9,2.2,70,0.00,,,0.00,WUHU216HW,2013-11-13 14:17:00,
2013-11-13 09:22:00,29.2,20.6,30.59,East,90,2.0,2.0,70,0.00,,,0.00,WUHU216HW,2013-11-13 14:22:00,
2013-11-13 09:27:00,29.3,20.4,30.59,ESE,113,3.8,4.7,69,0.00,,,0.00,WUHU216HW,2013-11-13 14:27:00,
2013-11-13 09:32:00,29.3,20.1,30.59,ENE,68,1.3,4.7,68,0.00,,,0.00,WUHU216HW,2013-11-13 14:32:00,
2013-11-13 09:37:00,29.7,20.4,30.59,ENE,68,1.8,3.8,68,0.00,,,0.00,WUHU216HW,2013-11-13 14:37:00,
2013-11-13 09:42:00,29.9,20.2,30.59,NNE,23,0.2,2.0,67,0.00,,,0.00,WUHU216HW,2013-11-13 14:42:00,
2013-11-13 09:47:00,30.1,20.3,30.59,ESE,113,1.8,2.0,67,0.00,,,0.00,WUHU216HW,2013-11-13 14:47:00,
2013-11-13 09:52:00,30.2,20.2,30.59,SE,135,0.4,3.1,66,0.00,,,0.00,WUHU216HW,2013-11-13 14:52:00,
2013-11-13 09:57:00,30.6,20.5,30.60,North,0,0.2,3.1,66,0.00,,,0.00,WUHU216HW,2013-11-13 14:57:00,
2013-11-13 10:02:00,30.8,20.7,30.60,NW,315,0.0,1.8,66,0.00,,,0.00,WUHU216HW,2013-11-13 15:02:00,
2013-11-13 10:07:00,31.1,21.1,30.60,West,270,0.0,0.9,66,0.00,,,0.00,WUHU216HW,2013-11-13 15:07:00,
2013-11-13 10:12:00,31.3,21.2,30.60,North,0,0.4,2.2,66,0.00,,,0.00,WUHU216HW,2013-11-13 15:12:00,
2013-11-13 10:17:00,31.3,20.9,30.60,WSW,248,0.4,2.2,65,0.00,,,0.00,WUHU216HW,2013-11-13 15:17:00,
2013-11-13 10:22:00,31.3,20.9,30.60,WSW,248,0.4,0.7,65,0.00,,,0.00,WUHU216HW,2013-11-13 15:22:00,
2013-11-13 10:27:00,31.5,21.1,30.60,North,0,0.2,1.8,65,0.00,,,0.00,WUHU216HW,2013-11-13 15:27:00,
2013-11-13 10:32:00,31.7,21.2,30.60,ESE,113,1.8,2.0,65,0.00,,,0.00,WUHU216HW,2013-11-13 15:32:00,
2013-11-13 10:37:00,31.9,21.1,30.60,North,0,1.1,2.9,64,0.00,,,0.00,WUHU216HW,2013-11-13 15:37:00,
2013-11-13 10:42:00,32.0,21.2,30.60,NW,315,0.2,2.9,64,0.00,,,0.00,WUHU216HW,2013-11-13 15:42:00,
2013-11-13 10:47:00,32.2,21.1,30.60,NNW,338,0.0,1.1,63,0.00,,,0.00,WUHU216HW,2013-11-13 15:47:00,
2013-11-13 10:52:00,32.6,21.3,30.60,West,270,2.0,2.0,63,0.00,,,0.00,WUHU216HW,2013-11-13 15:52:00,
2013-11-13 10:57:00,32.9,21.7,30.60,SW,225,0.9,2.0,63,0.00,,,0.00,WUHU216HW,2013-11-13 15:57:00,
2013-11-13 11:02:00,33.1,21.5,30.60,SE,135,1.8,2.0,62,0.00,,,0.00,WUHU216HW,2013-11-13 16:02:00,
2013-11-13 11:07:00,33.7,22.0,30.60,SE,135,0.2,2.5,62,0.00,,,0.00,WUHU216HW,2013-11-13 16:07:00,
2013-11-13 11:12:00,33.8,22.1,30.60,East,90,2.5,2.5,62,0.00,,,0.00,WUHU216HW,2013-11-13 16:12:00,
2013-11-13 11:17:00,34.2,22.5,30.60,West,270,1.1,2.5,62,0.00,,,0.00,WUHU216HW,2013-11-13 16:17:00,
2013-11-13 11:22:00,34.2,22.1,30.59,SSW,203,0.9,2.5,61,0.00,,,0.00,WUHU216HW,2013-11-13 16:22:00,
2013-11-13 11:27:00,34.6,22.5,30.59,SSW,203,0.4,1.8,61,0.00,,,0.00,WUHU216HW,2013-11-13 16:27:00,
2013-11-13 11:32:00,35.1,23.0,30.59,ESE,113,0.7,2.5,61,0.00,,,0.00,WUHU216HW,2013-11-13 16:32:00,
2013-11-13 11:37:00,35.3,22.9,30.59,SSW,203,1.3,4.0,60,0.00,,,0.00,WUHU216HW,2013-11-13 16:37:00,
2013-11-13 11:42:00,35.8,23.4,30.58,SSW,203,1.3,4.0,60,0.00,,,0.00,WUHU216HW,2013-11-13 16:42:00,
2013-11-13 11:47:00,36.4,23.9,30.58,WSW,248,1.1,2.5,60,0.00,,,0.00,WUHU216HW,2013-11-13 16:47:00,
2013-11-13 11:52:00,36.2,23.3,30.57,SSW,203,0.7,1.6,59,0.00,,,0.00,WUHU216HW,2013-11-13 16:52:00,
2013-11-13 11:57:00,36.4,23.4,30.57,East,90,3.4,3.4,59,0.00,,,0.00,WUHU216HW,2013-11-13 16:57:00,
2013-11-13 12:02:00,36.4,23.1,30.57,SE,135,2.2,3.4,58,0.00,,,0.00,WUHU216HW,2013-11-13 17:02:00,
2013-11-13 12:07:00,36.7,23.3,30.57,South,180,1.8,2.9,58,0.00,,,0.00,WUHU216HW,2013-11-13 17:07:00,
2013-11-13 12:12:00,36.9,23.0,30.57,East,90,2.9,3.4,57,0.00,,,0.00,WUHU216HW,2013-11-13 17:12:00,
2013-11-13 12:17:00,37.1,23.2,30.56,NE,45,0.0,3.4,57,0.00,,,0.00,WUHU216HW,2013-11-13 17:17:00,
2013-11-13 12:22:00,37.1,22.8,30.56,West,270,1.3,2.9,56,0.00,,,0.00,WUHU216HW,2013-11-13 17:22:00,
2013-11-13 12:27:00,36.7,22.1,30.56,WSW,248,1.1,2.0,55,0.00,,,0.00,WUHU216HW,2013-11-13 17:27:00,
2013-11-13 12:32:00,36.7,22.1,30.55,West,270,1.8,2.2,55,0.00,,,0.00,WUHU216HW,2013-11-13 17:32:00,
2013-11-13 12:37:00,36.7,21.6,30.55,WSW,248,1.8,2.2,54,0.00,,,0.00,WUHU216HW,2013-11-13 17:37:00,
2013-11-13 12:42:00,36.9,22.6,30.55,SSW,203,1.6,1.8,56,0.00,,,0.00,WUHU216HW,2013-11-13 17:42:00,
2013-11-13 12:47:00,37.4,23.1,30.54,SE,135,0.7,2.2,56,0.00,,,0.00,WUHU216HW,2013-11-13 17:47:00,
2013-11-13 12:52:00,38.2,23.8,30.54,ESE,113,1.6,2.2,56,0.00,,,0.00,WUHU216HW,2013-11-13 17:52:00,
2013-11-13 12:57:00,38.3,23.5,30.54,WNW,293,1.1,2.5,55,0.00,,,0.00,WUHU216HW,2013-11-13 17:57:00,
2013-11-13 13:02:00,38.5,23.2,30.53,SSW,203,1.1,2.5,54,0.00,,,0.00,WUHU216HW,2013-11-13 18:02:00,
2013-11-13 13:07:00,38.5,23.2,30.53,East,90,1.1,2.5,54,0.00,,,0.00,WUHU216HW,2013-11-13 18:07:00,
2013-11-13 13:12:00,38.5,23.2,30.53,SW,225,1.1,2.5,54,0.00,,,0.00,WUHU216HW,2013-11-13 18:12:00,
2013-11-13 13:17:00,38.5,23.2,30.53,SW,225,0.9,2.5,54,0.00,,,0.00,WUHU216HW,2013-11-13 18:17:00,
2013-11-13 13:22:00,38.9,23.6,30.53,SW,225,1.8,2.0,54,0.00,,,0.00,WUHU216HW,2013-11-13 18:22:00,
2013-11-13 13:27:00,38.9,23.1,30.53,WNW,293,0.4,2.5,53,0.00,,,0.00,WUHU216HW,2013-11-13 18:27:00,
2013-11-13 13:32:00,39.2,23.4,30.53,North,0,0.4,2.7,53,0.00,,,0.00,WUHU216HW,2013-11-13 18:32:00,
2013-11-13 13:37:00,39.2,23.4,30.53,NW,315,0.0,4.0,53,0.00,,,0.00,WUHU216HW,2013-11-13 18:37:00,
2013-11-13 13:42:00,39.4,23.1,30.52,WSW,248,2.0,4.0,52,0.00,,,0.00,WUHU216HW,2013-11-13 18:42:00,
2013-11-13 13:47:00,39.4,23.1,30.52,WSW,248,0.0,3.8,52,0.00,,,0.00,WUHU216HW,2013-11-13 18:47:00,
2013-11-13 13:52:00,39.6,22.9,30.52,WNW,293,2.0,2.9,51,0.00,,,0.00,WUHU216HW,2013-11-13 18:52:00,
2013-11-13 13:57:00,39.6,23.3,30.52,NNW,338,0.7,2.2,52,0.00,,,0.00,WUHU216HW,2013-11-13 18:57:00,
2013-11-13 14:02:00,39.8,23.5,30.52,NW,315,1.1,4.0,52,0.00,,,0.00,WUHU216HW,2013-11-13 19:02:00,
2013-11-13 14:07:00,39.4,22.8,30.51,WNW,293,1.1,4.0,51,0.00,,,0.00,WUHU216HW,2013-11-13 19:07:00,
2013-11-13 14:12:00,39.4,22.3,30.51,WSW,248,1.8,2.7,50,0.00,,,0.00,WUHU216HW,2013-11-13 19:12:00,
2013-11-13 14:17:00,39.6,22.0,30.51,WSW,248,2.5,2.7,49,0.00,,,0.00,WUHU216HW,2013-11-13 19:17:00,
2013-11-13 14:22:00,39.6,22.0,30.50,WNW,293,1.8,2.7,49,0.00,,,0.00,WUHU216HW,2013-11-13 19:22:00,
2013-11-13 14:27:00,40.0,22.2,30.50,WNW,293,1.1,2.7,49,0.00,,,0.00,WUHU216HW,2013-11-13 19:27:00,
2013-11-13 14:32:00,40.0,22.2,30.50,NNW,338,0.2,2.7,49,0.00,,,0.00,WUHU216HW,2013-11-13 19:32:00,
2013-11-13 14:37:00,40.1,22.4,30.50,West,270,0.9,2.2,49,0.00,,,0.00,WUHU216HW,2013-11-13 19:37:00,
2013-11-13 14:42:00,40.1,22.4,30.49,West,270,1.1,2.2,49,0.00,,,0.00,WUHU216HW,2013-11-13 19:42:00,
2013-11-13 14:47:00,40.3,22.6,30.50,WNW,293,0.9,2.5,49,0.00,,,0.00,WUHU216HW,2013-11-13 19:47:00,
2013-11-13 14:52:00,40.3,22.6,30.49,NW,315,1.1,2.5,49,0.00,,,0.00,WUHU216HW,2013-11-13 19:52:00,
2013-11-13 14:57:00,40.5,22.8,30.49,WSW,248,0.4,2.5,49,0.00,,,0.00,WUHU216HW,2013-11-13 19:57:00,
2013-11-13 15:02:00,40.7,23.0,30.49,WSW,248,1.6,1.8,49,0.00,,,0.00,WUHU216HW,2013-11-13 20:02:00,
2013-11-13 15:07:00,40.9,23.0,30.50,South,180,0.0,1.8,49,0.00,,,0.00,WUHU216HW,2013-11-13 20:07:00,
2013-11-13 15:12:00,41.2,23.4,30.49,WSW,248,0.9,2.0,49,0.00,,,0.00,WUHU216HW,2013-11-13 20:12:00,
2013-11-13 15:17:00,41.6,23.8,30.49,West,270,0.4,2.2,49,0.00,,,0.00,WUHU216HW,2013-11-13 20:17:00,
2013-11-13 15:22:00,42.7,24.8,30.49,SW,225,0.7,2.2,49,0.00,,,0.00,WUHU216HW,2013-11-13 20:22:00,
2013-11-13 15:27:00,43.6,25.1,30.49,WSW,248,0.9,1.6,48,0.00,,,0.00,WUHU216HW,2013-11-13 20:27:00,
2013-11-13 15:32:00,43.6,25.1,30.49,NW,315,0.0,1.1,48,0.00,,,0.00,WUHU216HW,2013-11-13 20:32:00,
2013-11-13 15:37:00,43.6,24.6,30.48,North,0,0.4,1.8,47,0.00,,,0.00,WUHU216HW,2013-11-13 20:37:00,
2013-11-13 15:42:00,43.2,24.3,30.48,NNW,338,0.7,1.8,47,0.00,,,0.00,WUHU216HW,2013-11-13 20:42:00,
2013-11-13 15:47:00,42.7,23.8,30.48,NW,315,0.0,1.8,47,0.00,,,0.00,WUHU216HW,2013-11-13 20:47:00,
2013-11-13 15:52:00,42.3,23.4,30.49,WSW,248,0.4,1.8,47,0.00,,,0.00,WUHU216HW,2013-11-13 20:52:00,
2013-11-13 15:57:00,42.3,23.4,30.49,NW,315,0.4,1.6,47,0.00,,,0.00,WUHU216HW,2013-11-13 20:57:00,
2013-11-13 16:02:00,42.8,23.9,30.48,West,270,0.4,1.3,47,0.00,,,0.00,WUHU216HW,2013-11-13 21:02:00,
2013-11-13 16:07:00,43.6,24.6,30.48,ESE,113,0.7,1.3,47,0.00,,,0.00,WUHU216HW,2013-11-13 21:07:00,
2013-11-13 16:12:00,43.7,24.2,30.48,East,90,0.0,1.6,46,0.00,,,0.00,WUHU216HW,2013-11-13 21:12:00,
2013-11-13 16:17:00,44.3,25.2,30.48,West,270,0.4,1.6,47,0.00,,,0.00,WUHU216HW,2013-11-13 21:17:00,
2013-11-13 16:22:00,45.0,25.9,30.48,SE,135,0.0,0.9,47,0.00,,,0.00,WUHU216HW,2013-11-13 21:22:00,
2013-11-13 16:27:00,45.0,25.4,30.48,NE,45,2.0,2.0,46,0.00,,,0.00,WUHU216HW,2013-11-13 21:27:00,
2013-11-13 16:32:00,44.6,25.0,30.48,SE,135,0.4,2.0,46,0.00,,,0.00,WUHU216HW,2013-11-13 21:32:00,
2013-11-13 16:37:00,44.6,25.0,30.48,ENE,68,1.3,2.2,46,0.00,,,0.00,WUHU216HW,2013-11-13 21:37:00,
2013-11-13 16:42:00,44.3,24.1,30.48,East,90,0.4,2.2,45,0.00,,,0.00,WUHU216HW,2013-11-13 21:42:00,
2013-11-13 16:47:00,43.9,23.9,30.48,NNE,23,0.4,1.3,45,0.00,,,0.00,WUHU216HW,2013-11-13 21:47:00,
2013-11-13 16:52:00,43.6,23.5,30.48,NE,45,0.2,1.1,45,0.00,,,0.00,WUHU216HW,2013-11-13 21:52:00,
2013-11-13 16:57:00,42.8,22.9,30.48,NW,315,0.2,1.1,45,0.00,,,0.00,WUHU216HW,2013-11-13 21:57:00,
2013-11-13 17:02:00,42.5,22.5,30.48,NW,315,0.0,0.4,45,0.00,,,0.00,WUHU216HW,2013-11-13 22:02:00,
2013-11-13 17:07:00,41.9,22.5,30.48,ENE,68,0.7,0.7,46,0.00,,,0.00,WUHU216HW,2013-11-13 22:07:00,
2013-11-13 17:12:00,41.6,22.2,30.48,East,90,0.2,0.7,46,0.00,,,0.00,WUHU216HW,2013-11-13 22:12:00,
2013-11-13 17:17:00,41.2,21.9,30.48,East,90,0.0,0.7,46,0.00,,,0.00,WUHU216HW,2013-11-13 22:17:00,
2013-11-13 17:22:00,40.9,21.5,30.48,East,90,0.0,0.0,46,0.00,,,0.00,WUHU216HW,2013-11-13 22:22:00,
2013-11-13 17:27:00,40.5,21.7,30.48,East,90,0.0,0.0,47,0.00,,,0.00,WUHU216HW,2013-11-13 22:27:00,
2013-11-13 17:32:00,40.1,21.4,30.48,East,90,0.0,0.0,47,0.00,,,0.00,WUHU216HW,2013-11-13 22:32:00,
2013-11-13 17:37:00,39.8,21.1,30.48,East,90,0.0,0.0,47,0.00,,,0.00,WUHU216HW,2013-11-13 22:37:00,
2013-11-13 17:42:00,39.4,20.7,30.48,East,90,0.0,0.0,47,0.00,,,0.00,WUHU216HW,2013-11-13 22:42:00,
2013-11-13 17:47:00,39.2,20.6,30.48,East,90,0.0,0.0,47,0.00,,,0.00,WUHU216HW,2013-11-13 22:47:00,
2013-11-13 17:52:00,38.9,20.3,30.48,East,90,0.0,0.0,47,0.00,,,0.00,WUHU216HW,2013-11-13 22:52:00,
2013-11-13 17:57:00,38.5,19.9,30.48,East,90,0.0,0.0,47,0.00,,,0.00,WUHU216HW,2013-11-13 22:57:00,
2013-11-13 18:02:00,38.3,20.3,30.48,East,90,0.0,0.0,48,0.00,,,0.00,WUHU216HW,2013-11-13 23:02:00,
2013-11-13 18:07:00,38.0,20.0,30.48,East,90,0.0,0.0,48,0.00,,,0.00,WUHU216HW,2013-11-13 23:07:00,
2013-11-13 18:12:00,37.8,20.4,30.48,East,90,0.0,0.0,49,0.00,,,0.00,WUHU216HW,2013-11-13 23:12:00,
2013-11-13 18:17:00,37.4,20.0,30.48,East,90,0.0,0.0,49,0.00,,,0.00,WUHU216HW,2013-11-13 23:17:00,
2013-11-13 18:22:00,37.3,19.8,30.48,East,90,0.0,0.0,49,0.00,,,0.00,WUHU216HW,2013-11-13 23:22:00,
2013-11-13 18:27:00,37.1,20.2,30.48,East,90,0.0,0.0,50,0.00,,,0.00,WUHU216HW,2013-11-13 23:27:00,
2013-11-13 18:32:00,36.7,19.9,30.48,East,90,0.0,0.0,50,0.00,,,0.00,WUHU216HW,2013-11-13 23:32:00,
2013-11-13 18:37:00,36.5,19.7,30.48,East,90,0.4,0.4,50,0.00,,,0.00,WUHU216HW,2013-11-13 23:37:00,
2013-11-13 18:42:00,36.4,19.5,30.47,East,90,0.0,0.4,50,0.00,,,0.00,WUHU216HW,2013-11-13 23:42:00,
2013-11-13 18:47:00,36.2,19.8,30.47,East,90,0.0,0.4,51,0.00,,,0.00,WUHU216HW,2013-11-13 23:47:00,
2013-11-13 18:52:00,36.0,19.6,30.47,East,90,0.0,0.0,51,0.00,,,0.00,WUHU216HW,2013-11-13 23:52:00,
2013-11-13 18:57:00,35.8,19.5,30.47,East,90,0.0,0.0,51,0.00,,,0.00,WUHU216HW,2013-11-13 23:57:00,
2013-11-13 19:02:00,35.6,19.4,30.47,East,90,0.7,0.7,51,0.00,,,0.00,WUHU216HW,2013-11-14 00:02:00,
2013-11-13 19:07:00,35.6,19.8,30.47,East,90,0.4,0.7,52,0.00,,,0.00,WUHU216HW,2013-11-14 00:07:00,
2013-11-13 19:12:00,35.5,19.6,30.47,East,90,0.2,0.4,52,0.00,,,0.00,WUHU216HW,2013-11-14 00:12:00,
2013-11-13 19:17:00,35.3,19.5,30.47,East,90,0.4,0.7,52,0.00,,,0.00,WUHU216HW,2013-11-14 00:17:00,
2013-11-13 19:22:00,35.1,19.3,30.47,East,90,0.4,0.7,52,0.00,,,0.00,WUHU216HW,2013-11-14 00:22:00,
2013-11-13 19:27:00,34.9,19.4,30.46,East,90,0.4,0.7,53,0.00,,,0.00,WUHU216HW,2013-11-14 00:27:00,
2013-11-13 19:32:00,34.9,19.4,30.46,ENE,68,0.7,0.7,53,0.00,,,0.00,WUHU216HW,2013-11-14 00:32:00,
2013-11-13 19:37:00,34.7,19.3,30.46,ENE,68,0.4,0.9,53,0.00,,,0.00,WUHU216HW,2013-11-14 00:37:00,
2013-11-13 19:42:00,34.6,19.1,30.46,NE,45,1.1,1.1,53,0.00,,,0.00,WUHU216HW,2013-11-14 00:42:00,
2013-11-13 19:47:00,34.6,19.1,30.46,NE,45,0.4,1.3,53,0.00,,,0.00,WUHU216HW,2013-11-14 00:47:00,
2013-11-13 19:52:00,34.6,19.5,30.46,NE,45,0.7,1.3,54,0.00,,,0.00,WUHU216HW,2013-11-14 00:52:00,
2013-11-13 19:57:00,34.4,19.4,30.46,NE,45,0.4,1.1,54,0.00,,,0.00,WUHU216HW,2013-11-14 00:57:00,
2013-11-13 20:02:00,34.4,19.4,30.46,East,90,0.2,1.1,54,0.00,,,0.00,WUHU216HW,2013-11-14 01:02:00,
2013-11-13 20:07:00,34.4,19.4,30.46,East,90,0.4,0.4,54,0.00,,,0.00,WUHU216HW,2013-11-14 01:07:00,
2013-11-13 20:12:00,34.2,19.2,30.45,East,90,0.0,0.4,54,0.00,,,0.00,WUHU216HW,2013-11-14 01:12:00,
2013-11-13 20:17:00,34.2,19.2,30.45,East,90,0.4,0.4,54,0.00,,,0.00,WUHU216HW,2013-11-14 01:17:00,
2013-11-13 20:22:00,34.2,19.2,30.45,East,90,0.0,0.4,54,0.00,,,0.00,WUHU216HW,2013-11-14 01:22:00,
2013-11-13 20:27:00,34.0,19.4,30.45,East,90,0.0,0.4,55,0.00,,,0.00,WUHU216HW,2013-11-14 01:27:00,
2013-11-13 20:32:00,33.8,19.3,30.45,East,90,0.0,0.0,55,0.00,,,0.00,WUHU216HW,2013-11-14 01:32:00,
2013-11-13 20:37:00,33.8,19.3,30.45,East,90,0.4,0.7,55,0.00,,,0.00,WUHU216HW,2013-11-14 01:37:00,
2013-11-13 20:42:00,33.8,19.3,30.45,East,90,0.4,0.7,55,0.00,,,0.00,WUHU216HW,2013-11-14 01:42:00,
2013-11-13 20:47:00,33.8,19.3,30.45,East,90,0.4,0.7,55,0.00,,,0.00,WUHU216HW,2013-11-14 01:47:00,
2013-11-13 20:52:00,33.8,19.3,30.45,East,90,0.0,0.4,55,0.00,,,0.00,WUHU216HW,2013-11-14 01:52:00,
2013-11-13 20:57:00,33.8,19.3,30.45,East,90,0.0,0.4,55,0.00,,,0.00,WUHU216HW,2013-11-14 01:57:00,
2013-11-13 21:02:00,33.7,19.1,30.45,East,90,0.0,0.4,55,0.00,,,0.00,WUHU216HW,2013-11-14 02:02:00,
2013-11-13 21:07:00,33.7,19.1,30.44,East,90,0.0,0.4,55,0.00,,,0.00,WUHU216HW,2013-11-14 02:07:00,
2013-11-13 21:12:00,33.7,19.1,30.44,ENE,68,0.4,0.9,55,0.00,,,0.00,WUHU216HW,2013-11-14 02:12:00,
2013-11-13 21:17:00,33.7,19.5,30.44,ENE,68,0.2,0.9,56,0.00,,,0.00,WUHU216HW,2013-11-14 02:17:00,
2013-11-13 21:22:00,33.5,19.4,30.44,ENE,68,0.0,0.4,56,0.00,,,0.00,WUHU216HW,2013-11-14 02:22:00,
2013-11-13 21:27:00,33.5,19.4,30.44,ENE,68,0.0,0.2,56,0.00,,,0.00,WUHU216HW,2013-11-14 02:27:00,
2013-11-13 21:32:00,33.5,19.4,30.44,ENE,68,0.0,0.0,56,0.00,,,0.00,WUHU216HW,2013-11-14 02:32:00,
2013-11-13 21:37:00,33.5,19.4,30.44,ENE,68,0.0,0.0,56,0.00,,,0.00,WUHU216HW,2013-11-14 02:37:00,
2013-11-13 21:42:00,33.5,19.4,30.44,ENE,68,0.0,0.0,56,0.00,,,0.00,WUHU216HW,2013-11-14 02:42:00,
2013-11-13 21:47:00,33.3,19.2,30.44,ENE,68,0.0,0.0,56,0.00,,,0.00,WUHU216HW,2013-11-14 02:47:00,
2013-11-13 21:52:00,33.1,19.1,30.44,ENE,68,0.0,0.0,56,0.00,,,0.00,WUHU216HW,2013-11-14 02:52:00,
2013-11-13 21:57:00,32.9,18.9,30.44,ENE,68,0.0,0.0,56,0.00,,,0.00,WUHU216HW,2013-11-14 02:57:00,
2013-11-13 22:02:00,32.9,19.4,30.44,ENE,68,0.0,0.0,57,0.00,,,0.00,WUHU216HW,2013-11-14 03:02:00,
2013-11-13 22:07:00,32.8,19.2,30.44,ENE,68,0.0,0.0,57,0.00,,,0.00,WUHU216HW,2013-11-14 03:07:00,
2013-11-13 22:12:00,32.8,19.2,30.44,ENE,68,0.0,0.0,57,0.00,,,0.00,WUHU216HW,2013-11-14 03:12:00,
2013-11-13 22:17:00,32.8,19.2,30.44,ENE,68,0.0,0.0,57,0.00,,,0.00,WUHU216HW,2013-11-14 03:17:00,
2013-11-13 22:22:00,32.8,19.2,30.44,ENE,68,0.0,0.0,57,0.00,,,0.00,WUHU216HW,2013-11-14 03:22:00,
2013-11-13 22:27:00,32.8,19.2,30.44,ENE,68,0.0,0.0,57,0.00,,,0.00,WUHU216HW,2013-11-14 03:27:00,
2013-11-13 22:32:00,32.6,19.5,30.44,ENE,68,0.0,0.0,58,0.00,,,0.00,WUHU216HW,2013-11-14 03:32:00,
2013-11-13 22:37:00,32.6,19.5,30.44,ENE,68,0.0,0.0,58,0.00,,,0.00,WUHU216HW,2013-11-14 03:37:00,
2013-11-13 22:42:00,32.4,19.3,30.43,ENE,68,0.4,0.4,58,0.00,,,0.00,WUHU216HW,2013-11-14 03:42:00,
2013-11-13 22:47:00,32.2,19.1,30.43,ENE,68,0.0,0.4,58,0.00,,,0.00,WUHU216HW,2013-11-14 03:47:00,
2013-11-13 22:52:00,32.2,19.1,30.43,ENE,68,0.0,0.2,58,0.00,,,0.00,WUHU216HW,2013-11-14 03:52:00,
2013-11-13 22:57:00,32.2,19.1,30.43,ENE,68,0.0,0.0,58,0.00,,,0.00,WUHU216HW,2013-11-14 03:57:00,
2013-11-13 23:02:00,32.2,19.5,30.43,ENE,68,0.0,0.0,59,0.00,,,0.00,WUHU216HW,2013-11-14 04:02:00,
2013-11-13 23:07:00,32.2,19.5,30.43,ENE,68,0.0,0.0,59,0.00,,,0.00,WUHU216HW,2013-11-14 04:07:00,
2013-11-13 23:12:00,32.0,19.4,30.43,ESE,113,0.4,0.4,59,0.00,,,0.00,WUHU216HW,2013-11-14 04:12:00,
2013-11-13 23:17:00,31.9,19.2,30.43,ESE,113,0.0,0.4,59,0.00,,,0.00,WUHU216HW,2013-11-14 04:17:00,
2013-11-13 23:22:00,31.7,19.0,30.43,ESE,113,0.0,0.4,59,0.00,,,0.00,WUHU216HW,2013-11-14 04:22:00,
2013-11-13 23:27:00,31.7,19.0,30.43,ESE,113,0.0,0.2,59,0.00,,,0.00,WUHU216HW,2013-11-14 04:27:00,
2013-11-13 23:32:00,31.5,19.3,30.43,ESE,113,0.0,0.2,60,0.00,,,0.00,WUHU216HW,2013-11-14 04:32:00,
2013-11-13 23:37:00,31.5,19.3,30.43,ESE,113,0.0,0.0,60,0.00,,,0.00,WUHU216HW,2013-11-14 04:37:00,
2013-11-13 23:42:00,31.5,19.3,30.43,ESE,113,0.0,0.0,60,0.00,,,0.00,WUHU216HW,2013-11-14 04:42:00,
2013-11-13 23:47:00,31.5,19.3,30.43,ESE,113,0.0,0.0,60,0.00,,,0.00,WUHU216HW,2013-11-14 04:47:00,
2013-11-13 23:52:00,31.3,19.4,30.43,ESE,113,0.0,0.0,61,0.00,,,0.00,WUHU216HW,2013-11-14 04:52:00,
2013-11-13 23:57:00,31.3,19.8,30.43,ESE,113,0.0,0.0,62,0.00,,,0.00,WUHU216HW,2013-11-14 04:57:00,